STARLINK-34572 (64720 NORAD) Tracking and Keplerian Element Data

This shows tracking and keplerian element data for the satellite.

Feedback or suggestion? Click here.




ElementValue
Catalog64720
NameSTARLINK-34572
Epoch Orbit2763
Epoch Day353.46455227
Epoch Year2025
RAAN156.7366
Inclination70.0003
Eccentricity0.0002577
Argument of Perigee274.58
Mean Anonmoly85.5064
Mean Motion14.98341429
Decay Rate4.051E-05
L11 64720U 25142AA 25353.46455227 .00004051 00000+0 34705-3 0 9997
L22 64720 70.0003 156.7366 0002577 274.5800 85.5064 14.98341429 27633



Live tracking and technical data element details for STARLINK-34572 (NORAD 64720). STARLINK-34572 can be tracked NOW for your location showing map with azimuth and elevation plus other details from your city location.







IsCatalogInMostPopularTable: catalog: 64720, numindb: 9
Update: records affected: 1



GetName: 64720 STARLINK-34572

Hit Count: updated at: Sat, 11 Apr 2026 21:53:14 GMT